,,,PA_Meas_PMT16A,,PR_Meas_QMR101_102,,RH_Meas_QMH101,,SR_Meas_QMS101,,TA_Meas_QMH101,,GenWind,,GenWind,
date,time,status,PA,status,PR,status,RH,status,SR,status,TA,status,DirAvg,status,SpdAvg,
2010-02-19, 00:00:04,VALID,1005.44,VALID,0,VALID,82.2088,VALID,0,VALID,25.9427,VALID,31,VALID,1.74922,
2010-02-19, 00:01:04,VALID,1005.4,VALID,0,VALID,82.0333,VALID,0,VALID,25.9622,VALID,23,VALID,1.56289,
2010-02-19, 00:02:04,VALID,1005.38,VALID,0,VALID,81.9265,VALID,0,VALID,25.9817,VALID,27,VALID,1.44727,
2010-02-19, 00:03:04,VALID,1005.38,VALID,0,VALID,81.8121,VALID,0,VALID,26.0401,VALID,23,VALID,1.85234,
2010-02-19, 00:04:04,VALID,1005.39,VALID,0,VALID,81.8274,VALID,0,VALID,26.0401,VALID,24,VALID,1.03633,
2010-02-19, 00:05:04,VALID,1005.36,VALID,0,VALID,81.7435,VALID,0,VALID,26.0616,VALID,21,VALID,1.66562,
2010-02-19, 00:06:04,VALID,1005.38,VALID,0,VALID,81.7435,VALID,0,VALID,26.0401,VALID,25,VALID,1.09922,
2010-02-19, 00:07:04,VALID,1005.38,VALID,0,VALID,82.1173,VALID,0,VALID,26.0012,VALID,27,VALID,1.13281,
2010-02-19, 00:08:04,VALID,1005.39,VALID,0,VALID,82.2698,VALID,0,VALID,26.0031,VALID,20,VALID,1.36641,
2010-02-19, 00:09:04,VALID,1005.35,VALID,0,VALID,82.1554,VALID,0,VALID,25.9427,VALID,25,VALID,1.21211,
2010-02-19, 00:10:04,VALID,1005.34,VALID,0,VALID,82.7581,VALID,0,VALID,25.9232,VALID,17,VALID,0.879687,
2010-02-19, 00:11:04,VALID,1005.33,VALID,0,VALID,82.6894,VALID,0,VALID,25.8843,VALID,7,VALID,1.16367,
2010-02-19, 00:12:04,VALID,1005.33,VALID,0,VALID,83.1167,VALID,0,VALID,25.8259,VALID,27,VALID,1.10703,
2010-02-19, 00:13:04,VALID,1005.32,VALID,0,VALID,82.8039,VALID,0,VALID,25.7869,VALID,12,VALID,1.61367,
2010-02-19, 00:14:04,VALID,1005.32,VALID,0,VALID,82.6894,VALID,0,VALID,25.8453,VALID,17,VALID,1.46875,
2010-02-19, 00:15:04,VALID,1005.3,VALID,0,VALID,82.7123,VALID,0,VALID,25.8453,VALID,17,VALID,1.32109,
2010-02-19, 00:16:04,VALID,1005.3,VALID,0,VALID,82.7352,VALID,0,VALID,25.8259,VALID,22,VALID,1.5543,
2010-02-19, 00:17:04,VALID,1005.31,VALID,0,VALID,82.8039,VALID,0,VALID,25.8259,VALID,5,VALID,1.16797,
2010-02-19, 00:18:04,VALID,1005.3,VALID,0,VALID,82.9641,VALID,0,VALID,25.8083,VALID,35,VALID,1.44844,
2010-02-19, 00:19:04,VALID,1005.29,VALID,0,VALID,82.3995,VALID,0,VALID,25.8648,VALID,26,VALID,1.51953,
2010-02-19, 00:20:04,VALID,1005.28,VALID,0,VALID,82.6742,VALID,0,VALID,25.8648,VALID,23,VALID,0.989453,
2010-02-19, 00:21:04,VALID,1005.27,VALID,0,VALID,82.5369,VALID,0,VALID,25.8648,VALID,18,VALID,1.62734,
2010-02-19, 00:22:04,VALID,1005.26,VALID,0,VALID,82.6437,VALID,0,VALID,25.8863,VALID,27,VALID,1.4293,
2010-02-19, 00:23:04,VALID,1005.28,VALID,0,VALID,82.5216,VALID,0,VALID,25.8239,VALID,32,VALID,1.55078,
2010-02-19, 00:24:04,VALID,1005.25,VALID,0,VALID,82.5063,VALID,0,VALID,25.8648,VALID,10,VALID,0.968359,
2010-02-19, 00:25:04,VALID,1005.28,VALID,0,VALID,82.0715,VALID,0,VALID,25.8648,VALID,4,VALID,2.00508,
2010-02-19, 00:26:04,VALID,1005.27,VALID,0,VALID,81.6748,VALID,0,VALID,25.9018,VALID,16,VALID,1.69766,
2010-02-19, 00:27:04,VALID,1005.3,VALID,0,VALID,81.9876,VALID,0,VALID,25.9622,VALID,19,VALID,1.05273,
2010-02-19, 00:28:04,VALID,1005.28,VALID,0,VALID,81.9647,VALID,0,VALID,25.9642,VALID,27,VALID,1.34766,
2010-02-19, 00:29:04,VALID,1005.28,VALID,0,VALID,81.6672,VALID,0,VALID,25.9622,VALID,18,VALID,2.00938,
2010-02-19, 00:30:04,VALID,1005.28,VALID,0,VALID,81.7435,VALID,0,VALID,26.0012,VALID,10,VALID,1.21641,
2010-02-19, 00:31:04,VALID,1005.29,VALID,0,VALID,81.4536,VALID,0,VALID,26.0012,VALID,27,VALID,1.82266,
2010-02-19, 00:32:04,VALID,1005.29,VALID,0,VALID,81.4612,VALID,0,VALID,26.081,VALID,9,VALID,1.175,
2010-02-19, 00:33:04,VALID,1005.28,VALID,0,VALID,81.9647,VALID,0,VALID,26.0616,VALID,18,VALID,1.09922,
2010-02-19, 00:34:04,VALID,1005.27,VALID,0,VALID,81.5146,VALID,0,VALID,26.0206,VALID,6,VALID,1.92383,
2010-02-19, 00:35:04,VALID,1005.27,VALID,0,VALID,81.9189,VALID,0,VALID,26.0421,VALID,8,VALID,0.819531,
2010-02-19, 00:36:04,VALID,1005.24,VALID,0,VALID,81.9952,VALID,0,VALID,25.9817,VALID,11,VALID,0.930859,
2010-02-19, 00:37:04,VALID,1005.24,VALID,0,VALID,82.5292,VALID,0,VALID,25.9622,VALID,19,VALID,1.01875,
2010-02-19, 00:38:04,VALID,1005.22,VALID,0,VALID,82.3919,VALID,0,VALID,25.9252,VALID,30,VALID,0.896094,
2010-02-19, 00:39:04,VALID,1005.23,VALID,0,VALID,82.6971,VALID,0,VALID,25.9232,VALID,18,VALID,1.36953,
2010-02-19, 00:40:04,VALID,1005.24,VALID,0,VALID,82.2088,VALID,0,VALID,25.9038,VALID,26,VALID,1.11797,
2010-02-19, 00:41:04,VALID,1005.2,VALID,0,VALID,82.247,VALID,0,VALID,25.8843,VALID,17,VALID,0.673437,
2010-02-19, 00:42:04,VALID,1005.22,VALID,0,VALID,82.4606,VALID,0,VALID,25.8843,VALID,13,VALID,1.28477,
2010-02-19, 00:43:04,VALID,1005.21,VALID,0,VALID,82.3614,VALID,0,VALID,25.9057,VALID,25,VALID,1.21563,
2010-02-19, 00:44:04,VALID,1005.19,VALID,0,VALID,82.3004,VALID,0,VALID,25.8843,VALID,19,VALID,1.20195,
2010-02-19, 00:45:04,VALID,1005.19,VALID,0,VALID,82.636,VALID,0,VALID,25.8648,VALID,30,VALID,1.24102,
2010-02-19, 00:46:04,VALID,1005.16,VALID,0,VALID,82.4987,VALID,0,VALID,25.8668,VALID,14,VALID,1.1207,
2010-02-19, 00:47:04,VALID,1005.17,VALID,0,VALID,82.2622,VALID,0,VALID,25.9057,VALID,12,VALID,0.73125,
2010-02-19, 00:48:04,VALID,1005.18,VALID,0,VALID,82.041,VALID,0,VALID,25.8843,VALID,8,VALID,0.66875,
2010-02-19, 00:49:04,VALID,1005.14,VALID,0,VALID,82.6742,VALID,0,VALID,25.8453,VALID,16,VALID,0.939453,
2010-02-19, 00:50:04,VALID,1005.14,VALID,0,VALID,83.2158,VALID,0,VALID,25.8278,VALID,15,VALID,0.712891,
2010-02-19, 00:51:04,VALID,1005.15,VALID,0,VALID,82.9183,VALID,0,VALID,25.7694,VALID,26,VALID,1.08008,
2010-02-19, 00:52:04,VALID,1005.13,VALID,0,VALID,82.7734,VALID,0,VALID,25.7694,VALID,7,VALID,1.16523,
2010-02-19, 00:53:04,VALID,1005.12,VALID,0,VALID,82.8649,VALID,0,VALID,25.7889,VALID,14,VALID,0.676953,
2010-02-19, 00:54:04,VALID,1005.11,VALID,0,VALID,82.781,VALID,0,VALID,25.7674,VALID,360,VALID,1.00234,
2010-02-19, 00:55:04,VALID,1005.11,VALID,0,VALID,82.3004,VALID,0,VALID,25.8064,VALID,20,VALID,0.572266,
2010-02-19, 00:56:04,VALID,1005.11,VALID,0,VALID,82.308,VALID,0,VALID,25.8453,VALID,41,VALID,0.824219,
2010-02-19, 00:57:04,VALID,1005.13,VALID,0,VALID,82.2851,VALID,0,VALID,25.8668,VALID,21,VALID,0.680078,
2010-02-19, 00:58:04,VALID,1005.11,VALID,0,VALID,82.4453,VALID,0,VALID,25.8473,VALID,5,VALID,0.914063,
2010-02-19, 00:59:04,VALID,1005.12,VALID,0,VALID,81.7587,VALID,0,VALID,25.9038,VALID,15,VALID,1.6332,
2010-02-19, 01:00:04,VALID,1005.1,VALID,0,VALID,82.041,VALID,0.100563,VALID,25.9213,VALID,44,VALID,0.84375,
2010-02-19, 01:01:04,VALID,1005.06,VALID,0,VALID,81.2781,VALID,0,VALID,25.9817,VALID,43,VALID,0.695703,
2010-02-19, 01:02:04,VALID,1005.05,VALID,0,VALID,81.4917,VALID,0.100563,VALID,26.0187,VALID,54,VALID,0.419141,
2010-02-19, 01:03:04,VALID,1005.01,VALID,0,VALID,81.3315,VALID,0,VALID,25.9797,VALID,54,VALID,0.247266,
2010-02-19, 01:04:04,VALID,1005.02,VALID,0,VALID,81.5451,VALID,0,VALID,25.9817,VALID,54,VALID,0.161719,
2010-02-19, 01:05:04,VALID,1005.02,VALID,0,VALID,82.0105,VALID,0,VALID,25.9427,VALID,33,VALID,0.675,
2010-02-19, 01:06:04,VALID,1005.02,VALID,0,VALID,82.6284,VALID,0,VALID,25.8434,VALID,13,VALID,0.874609,
2010-02-19, 01:07:04,VALID,1005,VALID,0,VALID,82.7581,VALID,0.100563,VALID,25.7869,VALID,21,VALID,1.43125,
2010-02-19, 01:08:04,VALID,1004.97,VALID,0,VALID,82.6437,VALID,0,VALID,25.8044,VALID,8,VALID,0.60625,
2010-02-19, 01:09:04,VALID,1004.95,VALID,0,VALID,82.9183,VALID,0,VALID,25.785,VALID,8,VALID,0.301562,
2010-02-19, 01:10:04,VALID,1004.94,VALID,0,VALID,82.5292,VALID,0.100563,VALID,25.7265,VALID,8,VALID,0.225781,
2010-02-19, 01:11:04,VALID,1004.92,VALID,0,VALID,83.0175,VALID,0.100563,VALID,25.7071,VALID,8,VALID,0.182422,
2010-02-19, 01:12:04,VALID,1004.95,VALID,0,VALID,83.0175,VALID,0.100563,VALID,25.6876,VALID,8,VALID,0.753125,
2010-02-19, 01:13:04,VALID,1004.95,VALID,0,VALID,83.0632,VALID,0.100563,VALID,25.67,VALID,2,VALID,0.757031,
2010-02-19, 01:14:04,VALID,1004.92,VALID,0,VALID,83.0098,VALID,0.100563,VALID,25.6681,VALID,24,VALID,0.526953,
2010-02-19, 01:15:04,VALID,1004.9,VALID,0,VALID,83.1319,VALID,0.100563,VALID,25.67,VALID,352,VALID,0.374609,
2010-02-19, 01:16:04,VALID,1004.9,VALID,0,VALID,83.4142,VALID,0.100563,VALID,25.6486,VALID,352,VALID,0.046875,
2010-02-19, 01:17:04,VALID,1004.92,VALID,0,VALID,84.2457,VALID,0,VALID,25.6116,VALID,352,VALID,0.341016,
2010-02-19, 01:18:04,VALID,1004.87,VALID,0,VALID,84.1771,VALID,0.100563,VALID,25.5123,VALID,27,VALID,0.786328,
2010-02-19, 01:19:04,VALID,1004.86,VALID,0,VALID,84.7874,VALID,0,VALID,25.4753,VALID,9,VALID,0.664844,
2010-02-19, 01:20:04,VALID,1004.8,VALID,0,VALID,84.6501,VALID,0.100563,VALID,25.3741,VALID,358,VALID,0.585938,
2010-02-19, 01:21:04,VALID,1004.81,VALID,0,VALID,83.5668,VALID,0,VALID,25.4149,VALID,28,VALID,1.82773,
2010-02-19, 01:22:04,VALID,1004.81,VALID,0,VALID,83.6583,VALID,0.100563,VALID,25.6116,VALID,343,VALID,0.705078,
2010-02-19, 01:23:04,VALID,1004.82,VALID,0,VALID,83.3608,VALID,0.100563,VALID,25.5688,VALID,352,VALID,0.917578,
2010-02-19, 01:24:04,VALID,1004.82,VALID,0,VALID,83.5744,VALID,0,VALID,25.6097,VALID,17,VALID,0.503906,
2010-02-19, 01:25:04,VALID,1004.77,VALID,0,VALID,82.9641,VALID,0,VALID,25.5707,VALID,30,VALID,0.463672,
2010-02-19, 01:26:04,VALID,1004.77,VALID,0,VALID,83.0709,VALID,0,VALID,25.5902,VALID,22,VALID,0.325,
2010-02-19, 01:27:04,VALID,1004.78,VALID,0,VALID,82.6513,VALID,0,VALID,25.6097,VALID,2,VALID,0.535937,
2010-02-19, 01:28:04,VALID,1004.77,VALID,0,VALID,82.636,VALID,0.100563,VALID,25.6486,VALID,2,VALID,0.203906,
2010-02-19, 01:29:04,VALID,1004.74,VALID,0,VALID,83.6736,VALID,0,VALID,25.6506,VALID,1,VALID,0.515625,
2010-02-19, 01:30:04,VALID,1004.74,VALID,0,VALID,84.1084,VALID,0,VALID,25.5337,VALID,1,VALID,0.509375,
2010-02-19, 01:31:04,VALID,1004.72,VALID,0,VALID,84.2381,VALID,0,VALID,25.4344,VALID,1,VALID,0.264062,
2010-02-19, 01:32:04,VALID,1004.73,VALID,0,VALID,84.5509,VALID,0,VALID,25.4169,VALID,1,VALID,0.228906,
2010-02-19, 01:33:04,VALID,1004.71,VALID,0,VALID,84.7721,VALID,0,VALID,25.337,VALID,1,VALID,0,
2010-02-19, 01:34:04,VALID,1004.69,VALID,0,VALID,85.0086,VALID,0,VALID,25.3195,VALID,1,VALID,0,
2010-02-19, 01:35:04,VALID,1004.69,VALID,0,VALID,85.2375,VALID,0,VALID,25.2611,VALID,1,VALID,0.114063,
2010-02-19, 01:36:04,VALID,1004.67,VALID,0,VALID,85.4053,VALID,0,VALID,25.2435,VALID,1,VALID,0.358984,
2010-02-19, 01:37:04,VALID,1004.68,VALID,0,VALID,85.741,VALID,0,VALID,25.1832,VALID,319,VALID,0.175391,
2010-02-19, 01:38:04,VALID,1004.67,VALID,0,VALID,86.2216,VALID,0,VALID,25.1248,VALID,319,VALID,0.125781,
2010-02-19, 01:39:04,VALID,1004.66,VALID,0,VALID,86.5115,VALID,0,VALID,25.0644,VALID,16,VALID,0.473828,
2010-02-19, 01:40:04,VALID,1004.65,VALID,0,VALID,86.7938,VALID,0,VALID,25.0079,VALID,11,VALID,0.389453,
2010-02-19, 01:41:04,VALID,1004.67,VALID,0,VALID,87.1981,VALID,0,VALID,24.9495,VALID,11,VALID,0.244922,
2010-02-19, 01:42:04,VALID,1004.66,VALID,0,VALID,87.4727,VALID,0,VALID,24.8503,VALID,11,VALID,0.172266,
2010-02-19, 01:43:04,VALID,1004.65,VALID,0,VALID,87.8542,VALID,0,VALID,24.7919,VALID,11,VALID,0.0160156,
2010-02-19, 01:44:04,VALID,1004.65,VALID,0,VALID,88.1593,VALID,0.100563,VALID,24.7919,VALID,337,VALID,0.132813,
2010-02-19, 01:45:04,VALID,1004.66,VALID,0,VALID,88.4645,VALID,0.100563,VALID,24.7529,VALID,337,VALID,0.00117188,
2010-02-19, 01:46:04,VALID,1004.65,VALID,0,VALID,88.6323,VALID,0.100563,VALID,24.7335,VALID,323,VALID,0.651953,
2010-02-19, 01:47:04,VALID,1004.64,VALID,0,VALID,88.7315,VALID,0.100563,VALID,24.714,VALID,307,VALID,0.0636719,
2010-02-19, 01:48:04,VALID,1004.65,VALID,0,VALID,88.9299,VALID,0.100563,VALID,24.714,VALID,307,VALID,0.302344,
2010-02-19, 01:49:04,VALID,1004.65,VALID,0,VALID,89.296,VALID,0,VALID,24.6769,VALID,307,VALID,0.411719,
2010-02-19, 01:50:04,VALID,1004.64,VALID,0,VALID,89.5173,VALID,0.100563,VALID,24.5953,VALID,307,VALID,0.258984,
2010-02-19, 01:51:04,VALID,1004.62,VALID,0,VALID,89.7385,VALID,0.100563,VALID,24.5174,VALID,307,VALID,0.378906,
2010-02-19, 01:52:04,VALID,1004.65,VALID,0,VALID,89.9674,VALID,0.100563,VALID,24.5388,VALID,307,VALID,0.220313,
2010-02-19, 01:53:04,VALID,1004.63,VALID,0,VALID,90.3259,VALID,0.100563,VALID,24.4998,VALID,309,VALID,0.554297,
2010-02-19, 01:54:04,VALID,1004.6,VALID,0,VALID,90.7226,VALID,0.100563,VALID,24.4609,VALID,309,VALID,0.576172,
2010-02-19, 01:55:04,VALID,1004.63,VALID,0,VALID,91.188,VALID,0.100563,VALID,24.4025,VALID,310,VALID,0.431641,
2010-02-19, 01:56:04,VALID,1004.61,VALID,0,VALID,91.4779,VALID,0.100563,VALID,24.3636,VALID,310,VALID,0.459766,
2010-02-19, 01:57:04,VALID,1004.57,VALID,0,VALID,91.6457,VALID,0.100563,VALID,24.3052,VALID,310,VALID,0.391406,
2010-02-19, 01:58:04,VALID,1004.56,VALID,0,VALID,91.8212,VALID,0.100563,VALID,24.2857,VALID,325,VALID,0.529297,
2010-02-19, 01:59:04,VALID,1004.56,VALID,0,VALID,92.1721,VALID,0,VALID,24.2681,VALID,328,VALID,0.489453,
2010-02-19, 02:00:04,VALID,1004.56,VALID,0,VALID,92.2255,VALID,0,VALID,24.2078,VALID,328,VALID,0.434375,
2010-02-19, 02:01:04,VALID,1004.58,VALID,0,VALID,92.2713,VALID,0,VALID,24.1707,VALID,328,VALID,0.428125,
2010-02-19, 02:02:04,VALID,1004.58,VALID,0,VALID,92.3857,VALID,0,VALID,24.1726,VALID,328,VALID,0.4125,
2010-02-19, 02:03:04,VALID,1004.58,VALID,0,VALID,92.5536,VALID,0,VALID,24.1318,VALID,328,VALID,0.420312,
2010-02-19, 02:04:04,VALID,1004.59,VALID,0,VALID,92.668,VALID,0,VALID,24.1318,VALID,328,VALID,0.312109,
2010-02-19, 02:05:04,VALID,1004.59,VALID,0,VALID,92.8358,VALID,0,VALID,24.0716,VALID,328,VALID,0.335938,
2010-02-19, 02:06:04,VALID,1004.57,VALID,0,VALID,92.9732,VALID,0,VALID,24.0929,VALID,328,VALID,0.408984,
2010-02-19, 02:07:04,VALID,1004.56,VALID,0,VALID,93.0647,VALID,0,VALID,24.0734,VALID,328,VALID,0.496094,
2010-02-19, 02:08:04,VALID,1004.54,VALID,0,VALID,93.1029,VALID,0,VALID,24.0752,VALID,328,VALID,0.482031,
2010-02-19, 02:09:04,VALID,1004.52,VALID,0,VALID,93.0876,VALID,0,VALID,24.0326,VALID,332,VALID,0.618359,
2010-02-19, 02:10:04,VALID,1004.5,VALID,0,VALID,93.141,VALID,0,VALID,24.0345,VALID,332,VALID,0.53125,
2010-02-19, 02:11:04,VALID,1004.48,VALID,0,VALID,93.1791,VALID,0,VALID,24.0345,VALID,332,VALID,0.540234,
2010-02-19, 02:12:04,VALID,1004.46,VALID,0,VALID,93.2173,VALID,0,VALID,23.9937,VALID,332,VALID,0.581641,
2010-02-19, 02:13:04,VALID,1004.45,VALID,0,VALID,93.2402,VALID,0,VALID,23.9761,VALID,332,VALID,0.383203,
2010-02-19, 02:14:04,VALID,1004.45,VALID,0,VALID,93.2631,VALID,0,VALID,23.9566,VALID,332,VALID,0.337891,
2010-02-19, 02:15:04,VALID,1004.47,VALID,0,VALID,93.3012,VALID,0,VALID,23.9371,VALID,332,VALID,0.267969,
2010-02-19, 02:16:04,VALID,1004.45,VALID,0,VALID,93.3394,VALID,0,VALID,23.9371,VALID,332,VALID,0.355469,
2010-02-19, 02:17:04,VALID,1004.44,VALID,0,VALID,93.3012,VALID,0,VALID,23.9177,VALID,334,VALID,0.4,
2010-02-19, 02:18:04,VALID,1004.42,VALID,0,VALID,93.2631,VALID,0,VALID,23.9566,VALID,334,VALID,0.554297,
2010-02-19, 02:19:04,VALID,1004.4,VALID,0,VALID,93.2402,VALID,0,VALID,23.9371,VALID,334,VALID,0.553516,
2010-02-19, 02:20:04,VALID,1004.41,VALID,0,VALID,93.2173,VALID,0,VALID,23.9584,VALID,334,VALID,0.459766,
2010-02-19, 02:21:04,VALID,1004.4,VALID,0,VALID,93.1944,VALID,0,VALID,23.9177,VALID,349,VALID,0.624609,
2010-02-19, 02:22:04,VALID,1004.37,VALID,0,VALID,93.1944,VALID,0,VALID,23.8787,VALID,349,VALID,0.407422,
2010-02-19, 02:23:04,VALID,1004.37,VALID,0,VALID,93.2325,VALID,0,VALID,23.8593,VALID,5,VALID,0.694141,
2010-02-19, 02:24:04,VALID,1004.37,VALID,0,VALID,93.3317,VALID,0,VALID,23.8185,VALID,6,VALID,0.314453,
2010-02-19, 02:25:04,VALID,1004.37,VALID,0,VALID,93.4385,VALID,0,VALID,23.838,VALID,9,VALID,0.783203,
2010-02-19, 02:26:04,VALID,1004.36,VALID,0,VALID,93.4919,VALID,0,VALID,23.8982,VALID,21,VALID,0.61875,
2010-02-19, 02:27:04,VALID,1004.33,VALID,0,VALID,93.4385,VALID,0,VALID,23.9548,VALID,15,VALID,0.847266,
2010-02-19, 02:28:04,VALID,1004.32,VALID,0,VALID,93.1105,VALID,0,VALID,24.0521,VALID,12,VALID,0.403516,
2010-02-19, 02:29:04,VALID,1004.31,VALID,0,VALID,92.5231,VALID,0,VALID,24.13,VALID,11,VALID,0.690625,
2010-02-19, 02:30:04,VALID,1004.28,VALID,0,VALID,91.928,VALID,0.100563,VALID,24.2273,VALID,14,VALID,0.81875,
2010-02-19, 02:31:04,VALID,1004.29,VALID,0,VALID,90.8752,VALID,0,VALID,24.3265,VALID,359,VALID,0.736328,
2010-02-19, 02:32:04,VALID,1004.31,VALID,0,VALID,90.5014,VALID,0.100563,VALID,24.3441,VALID,31,VALID,0.85625,
2010-02-19, 02:33:04,VALID,1004.31,VALID,0,VALID,90.0666,VALID,0,VALID,24.4238,VALID,21,VALID,0.834375,
2010-02-19, 02:34:04,VALID,1004.32,VALID,0,VALID,89.7843,VALID,0,VALID,24.4414,VALID,20,VALID,0.482422,
2010-02-19, 02:35:04,VALID,1004.34,VALID,0,VALID,89.7004,VALID,0,VALID,24.4609,VALID,19,VALID,0.581641,
2010-02-19, 02:36:04,VALID,1004.34,VALID,0,VALID,89.5173,VALID,0,VALID,24.4804,VALID,19,VALID,0.491406,
2010-02-19, 02:37:04,VALID,1004.35,VALID,0,VALID,89.3876,VALID,0,VALID,24.4804,VALID,17,VALID,0.619531,
2010-02-19, 02:38:04,VALID,1004.36,VALID,0,VALID,89.1892,VALID,0,VALID,24.5193,VALID,15,VALID,0.634375,
2010-02-19, 02:39:04,VALID,1004.36,VALID,0,VALID,88.9604,VALID,0,VALID,24.5582,VALID,14,VALID,0.769141,
2010-02-19, 02:40:04,VALID,1004.38,VALID,0,VALID,88.4569,VALID,0,VALID,24.6166,VALID,27,VALID,1.06172,
2010-02-19, 02:41:04,VALID,1004.42,VALID,0,VALID,87.8771,VALID,0,VALID,24.714,VALID,24,VALID,0.864062,
2010-02-19, 02:42:04,VALID,1004.37,VALID,0,VALID,87.5567,VALID,0,VALID,24.7937,VALID,24,VALID,0.493359,
2010-02-19, 02:43:04,VALID,1004.4,VALID,0,VALID,87.5338,VALID,0,VALID,24.7919,VALID,24,VALID,0.217187,
2010-02-19, 02:44:04,VALID,1004.39,VALID,0,VALID,87.5109,VALID,0,VALID,24.8132,VALID,24,VALID,0.303125,
2010-02-19, 02:45:04,VALID,1004.41,VALID,0,VALID,87.4117,VALID,0,VALID,24.7937,VALID,24,VALID,0.751172,
2010-02-19, 02:46:04,VALID,1004.41,VALID,0,VALID,87.4117,VALID,0,VALID,24.8132,VALID,24,VALID,0.26875,
2010-02-19, 02:47:04,VALID,1004.37,VALID,0,VALID,87.343,VALID,0,VALID,24.7919,VALID,24,VALID,0.527734,
2010-02-19, 02:48:04,VALID,1004.4,VALID,0,VALID,87.3354,VALID,0,VALID,24.8132,VALID,7,VALID,0.458594,
2010-02-19, 02:49:04,VALID,1004.35,VALID,0,VALID,87.4956,VALID,0,VALID,24.7919,VALID,12,VALID,0.420312,
2010-02-19, 02:50:04,VALID,1004.34,VALID,0,VALID,87.6863,VALID,0,VALID,24.7548,VALID,19,VALID,0.744141,
2010-02-19, 02:51:04,VALID,1004.33,VALID,0,VALID,87.9457,VALID,0,VALID,24.6769,VALID,19,VALID,0.433203,
2010-02-19, 02:52:04,VALID,1004.32,VALID,0,VALID,88.2356,VALID,0,VALID,24.6185,VALID,7,VALID,0.590625,
2010-02-19, 02:53:04,VALID,1004.3,VALID,0,VALID,88.2356,VALID,0,VALID,24.6185,VALID,317,VALID,0.389453,
2010-02-19, 02:54:04,VALID,1004.25,VALID,0,VALID,88.2967,VALID,0,VALID,24.6166,VALID,18,VALID,0.750391,
2010-02-19, 02:55:04,VALID,1004.26,VALID,0,VALID,88.2433,VALID,0,VALID,24.6361,VALID,29,VALID,0.948828,
2010-02-19, 02:56:04,VALID,1004.25,VALID,0,VALID,88.1822,VALID,0,VALID,24.6556,VALID,34,VALID,0.854297,
2010-02-19, 02:57:04,VALID,1004.22,VALID,0,VALID,87.9839,VALID,0,VALID,24.6769,VALID,356,VALID,0.907031,
2010-02-19, 02:58:04,VALID,1004.24,VALID,0,VALID,87.8389,VALID,0,VALID,24.7159,VALID,356,VALID,0.362109,
2010-02-19, 02:59:04,VALID,1004.22,VALID,0,VALID,87.8008,VALID,0.100563,VALID,24.714,VALID,356,VALID,0.376172,
2010-02-19, 03:00:04,VALID,1004.27,VALID,0,VALID,87.9381,VALID,0,VALID,24.675,VALID,356,VALID,0.39375,
2010-02-19, 03:01:04,VALID,1004.24,VALID,0,VALID,88.0068,VALID,0,VALID,24.6769,VALID,10,VALID,1.26289,
2010-02-19, 03:02:04,VALID,1004.26,VALID,0,VALID,88.0831,VALID,0,VALID,24.6556,VALID,4,VALID,0.725781,
2010-02-19, 03:03:04,VALID,1004.27,VALID,0,VALID,88.3501,VALID,0,VALID,24.6361,VALID,26,VALID,0.56875,
2010-02-19, 03:04:04,VALID,1004.24,VALID,0,VALID,88.4035,VALID,0,VALID,24.599,VALID,21,VALID,1.58047,
2010-02-19, 03:05:04,VALID,1004.26,VALID,0,VALID,87.6787,VALID,0,VALID,24.7937,VALID,349,VALID,0.636719,
2010-02-19, 03:06:04,VALID,1004.22,VALID,0,VALID,87.1447,VALID,0.100563,VALID,24.8503,VALID,359,VALID,1.00781,
2010-02-19, 03:07:04,VALID,1004.22,VALID,0,VALID,86.6793,VALID,0,VALID,24.93,VALID,7,VALID,1.09414,
2010-02-19, 03:08:04,VALID,1004.24,VALID,0,VALID,86.3894,VALID,0,VALID,24.9671,VALID,2,VALID,0.808984,
2010-02-19, 03:09:04,VALID,1004.25,VALID,0,VALID,86.0843,VALID,0,VALID,25.006,VALID,8,VALID,1.59336,
2010-02-19, 03:10:04,VALID,1004.26,VALID,0,VALID,85.9622,VALID,0.100563,VALID,25.0839,VALID,32,VALID,0.711328,
2010-02-19, 03:11:04,VALID,1004.25,VALID,0,VALID,86.0233,VALID,0.100563,VALID,25.045,VALID,29,VALID,0.909766,
2010-02-19, 03:12:04,VALID,1004.26,VALID,0,VALID,85.947,VALID,0,VALID,25.0469,VALID,21,VALID,0.879687,
2010-02-19, 03:13:04,VALID,1004.29,VALID,0,VALID,86.1835,VALID,0,VALID,25.0255,VALID,5,VALID,0.571875,
2010-02-19, 03:14:04,VALID,1004.27,VALID,0,VALID,86.4123,VALID,0,VALID,25.0079,VALID,23,VALID,0.625391,
2010-02-19, 03:15:04,VALID,1004.29,VALID,0,VALID,86.3055,VALID,0,VALID,24.9671,VALID,9,VALID,1.16953,
2010-02-19, 03:16:04,VALID,1004.29,VALID,0,VALID,86.1377,VALID,0.100563,VALID,25.006,VALID,353,VALID,0.832812,
2010-02-19, 03:17:04,VALID,1004.32,VALID,0,VALID,86.0156,VALID,0.100563,VALID,25.0469,VALID,359,VALID,0.799219,
2010-02-19, 03:18:04,VALID,1004.29,VALID,0,VALID,85.8783,VALID,0,VALID,25.0877,VALID,5,VALID,1.00117,
2010-02-19, 03:19:04,VALID,1004.31,VALID,0,VALID,85.9165,VALID,0,VALID,25.0663,VALID,19,VALID,1.01445,
2010-02-19, 03:20:04,VALID,1004.33,VALID,0,VALID,86.2064,VALID,0,VALID,25.0469,VALID,26,VALID,1.18594,
2010-02-19, 03:21:04,VALID,1004.3,VALID,0,VALID,86.1377,VALID,0,VALID,25.0274,VALID,25,VALID,1.07383,
2010-02-19, 03:22:04,VALID,1004.27,VALID,0,VALID,85.947,VALID,0,VALID,25.0858,VALID,6,VALID,0.762891,
2010-02-19, 03:23:04,VALID,1004.25,VALID,0,VALID,85.7715,VALID,0,VALID,25.1034,VALID,354,VALID,0.701563,
2010-02-19, 03:24:04,VALID,1004.26,VALID,0,VALID,85.4663,VALID,0,VALID,25.1034,VALID,26,VALID,1.52852,
2010-02-19, 03:25:04,VALID,1004.26,VALID,0,VALID,84.8255,VALID,0,VALID,25.2611,VALID,11,VALID,0.882422,
2010-02-19, 03:26:04,VALID,1004.27,VALID,0,VALID,85.0315,VALID,0.100563,VALID,25.2611,VALID,22,VALID,0.609766,
2010-02-19, 03:27:04,VALID,1004.28,VALID,0,VALID,85.329,VALID,0,VALID,25.2027,VALID,23,VALID,0.565234,
2010-02-19, 03:28:04,VALID,1004.31,VALID,0,VALID,85.6342,VALID,0,VALID,25.1034,VALID,23,VALID,0.633203,
2010-02-19, 03:29:04,VALID,1004.31,VALID,0,VALID,85.9088,VALID,0,VALID,25.0858,VALID,23,VALID,0.114063,
2010-02-19, 03:30:04,VALID,1004.33,VALID,0,VALID,86.0538,VALID,0,VALID,25.0469,VALID,67,VALID,0.45625,
2010-02-19, 03:31:04,VALID,1004.36,VALID,0,VALID,85.947,VALID,0,VALID,25.0255,VALID,11,VALID,0.845703,
2010-02-19, 03:32:04,VALID,1004.35,VALID,0,VALID,85.7791,VALID,0,VALID,25.0255,VALID,330,VALID,0.148047,
2010-02-19, 03:33:04,VALID,1004.35,VALID,0,VALID,86.0919,VALID,0,VALID,25.0255,VALID,36,VALID,0.586719,
2010-02-19, 03:34:04,VALID,1004.35,VALID,0,VALID,86.6488,VALID,0,VALID,24.9885,VALID,36,VALID,0.352344,
2010-02-19, 03:35:04,VALID,1004.33,VALID,0,VALID,86.6946,VALID,0,VALID,24.93,VALID,16,VALID,0.741406,
2010-02-19, 03:36:04,VALID,1004.35,VALID,0,VALID,86.8929,VALID,0,VALID,24.9106,VALID,25,VALID,0.874609,
2010-02-19, 03:37:04,VALID,1004.38,VALID,0,VALID,86.9921,VALID,0,VALID,24.8911,VALID,23,VALID,0.461719,
2010-02-19, 03:38:04,VALID,1004.37,VALID,0,VALID,86.336,VALID,0.100563,VALID,24.9106,VALID,24,VALID,1.68984,
2010-02-19, 03:39:04,VALID,1004.38,VALID,0,VALID,86.1148,VALID,0,VALID,25.0274,VALID,349,VALID,0.737891,
2010-02-19, 03:40:04,VALID,1004.37,VALID,0,VALID,86.0767,VALID,0,VALID,25.0682,VALID,358,VALID,0.611328,
2010-02-19, 03:41:04,VALID,1004.38,VALID,0,VALID,85.5579,VALID,0,VALID,25.0469,VALID,11,VALID,1.64844,
2010-02-19, 03:42:04,VALID,1004.38,VALID,0,VALID,85.2299,VALID,0,VALID,25.1229,VALID,13,VALID,0.625391,
2010-02-19, 03:43:04,VALID,1004.38,VALID,0,VALID,84.6119,VALID,0,VALID,25.2027,VALID,19,VALID,1.57383,
2010-02-19, 03:44:04,VALID,1004.37,VALID,0,VALID,84.261,VALID,0,VALID,25.2981,VALID,19,VALID,0.891406,